Kezdőlap
METAR-TAF:

METAR-TAF

Repülőterek :

Lamoni Municipal Airport

Lamoni, Iowa, Amerikai Egyesült Államok

földrajzi szélesség: 40-37-50N, földrajzi hosszúság: 093-54-03W, magasság: 344 m

Jelenlegi meteorológiai megfigyelések

A jelentés 1 órával és 10 perccel ezelõtt készült, 01:53 UTC
Déli szél 13 kt
Hőmérséklet -5°C
Páratartalom 53%
Légköri nyomás 1021 hPa
Látótávolság: 16.1 km
Derült ég

METAR: KLWD 270153Z AUTO 19013KT 10SM CLR M05/M13 A3014 RMK AO2 SLP228 T10501128

Idő: 21:03 (03:03 UTC)


TAF: hiányzik

Meteorológiai megfigyelések és előrejelzések több, mint 4000 repülőtéren (METAR és TAF jelentéseket).

A térképen piros és sárga pontok jelzik az elérhető meteorológiai állomásokat.

Mozgassa az egeret a pont fölött, hogy megjelenjen az állomás neve.

Azután kattintson az időjárási megfigyelések és előrejelzések megtekintéséhez.

A térkép megváltoztatása: kattintson a fekete keresztel jelölt zöld gombra ráközelítéshez, a vonallal jelölt zöld gombra távolításhoz, vagy a zöld nyilakra a szomszédos térképek eléréséhez.


METAR-TAF: